Dewpoint
30 28 28 28 28 28 27 28 28 28 28 28 29 27 27 28 29 31 34 42 41 44 48 50 51 52 52 53 55 59 63 66 68 68 68 68 68 69 69 68 69 68 68
28 30 30 29 29 30 30 30 28 29 29 28 27 27 29 29 29 31 32 35 40 42 45 47 49 50 52 53 53 55 61 63 65 68 68 68 68 68 68 68 68 68 67
25 25 28 28 27 28 28 27 27 27 27 25 25 26 27 28 28 28 30 32 34 37 39 43 46 48 50 52 53 53 57 61 63 66 68 68 68 68 68 68 68 67 67
23 24 24 23 25 26 26 25 25 25 25 25 24 24 25 26 27 28 29 29 31 32 35 40 43 47 50 53 55 55 55 60 61 63 66 67 67 67 68 68 68 67 66
22 22 23 24 24 25 25 24 24 24 25 25 24 24 26 27 28 26 26 27 29 30 32 41 48 51 53 55 56 56 55 55 60 61 63 65 67 67 67 67 67 66 65
23 23 23 24 24 25 25 24 22 24 25 25 22 24 27 27 28 27 27 28 34 38 45 44 47 47 50 52 52 57 57 57 57 61 62 64 62 67 68 66 66 65 65
24 23 23 23 24 23 22 22 24 24 25 25 26 26 26 25 25 24 30 28 29 28 37 38 41 44 43 47 47 52 56 57 58 59 60 62 62 63 61 64 65 66 66
23 22 23 23 22 23 22 22 23 24 25 25 24 25 22 23 24 25 25 26 25 29 31 32 42 41 42 44 46 47 52 56 58 59 60 61 62 63 62 62 65 66 66
23 23 23 23 23 23 24 23 23 22 23 24 23 24 22 18 24 24 25 26 26 27 29 34 36 38 41 42 46 45 49 54 57 59 60 60 61 62 62 62 63 65 66
22 23 23 22 22 23 22 23 21 23 24 22 24 21 23 24 24 22 23 26 26 27 29 32 34 36 40 42 46 46 50 52 55 58 60 60 60 60 62 62 64 63 65
21 20 21 21 21 23 22 23 23 22 23 23 24 24 23 25 26 25 23 25 26 27 28 29 31 36 38 42 45 46 46 49 53 57 59 60 60 60 61 62 62 62 65
19 19 19 20 21 21 21 23 23 23 23 22 23 23 24 25 26 26 25 24 24 25 27 28 30 35 42 44 44 45 45 46 52 56 58 59 60 60 59 61 60 62 64
18 18 17 18 18 20 21 22 22 22 21 21 21 22 23 24 26 27 27 26 25 25 26 26 30 35 39 42 41 43 44 46 52 54 57 58 59 60 60 61 60 63 65
16 16 16 16 16 17 19 19 20 21 20 22 20 20 21 23 26 27 30 27 24 23 24 23 26 34 37 40 41 43 42 45 50 52 55 55 55 58 58 59 60 61 64
14 14 16 16 16 17 18 18 20 19 19 20 20 21 20 22 24 27 29 30 28 23 22 23 26 30 33 37 39 41 42 43 48 50 51 54 54 58 58 59 59 60 61
14 15 15 15 16 17 17 18 18 18 18 19 19 19 20 21 22 28 29 27 29 28 24 25 26 28 30 33 38 41 40 43 46 49 49 53 54 57 57 58 58 59 59
14 14 15 16 16 16 16 17 16 17 17 18 19 20 20 21 22 24 26 28 28 28 27 27 27 28 29 32 37 39 40 41 45 46 47 53 54 55 56 56 57 58 59
14 14 15 15 15 16 16 16 16 16 17 17 18 19 20 19 21 24 25 27 28 28 28 26 27 29 30 31 34 38 39 43 43 44 46 49 51 55 55 55 56 58 58
14 15 15 16 16 17 16 16 16 16 16 17 18 19 19 20 22 23 24 27 27 27 29 28 28 30 30 32 34 38 40 42 43 43 44 45 49 52 53 53 54 56 56
15 15 16 16 18 17 16 16 16 16 19 21 22 22 22 23 23 24 24 26 26 28 30 29 30 30 30 32 35 39 37 40 41 41 41 43 46 48 50 51 50 54 55
16 16 17 17 17 17 16 18 21 24 24 24 24 24 25 26 28 27 26 29 28 30 30 30 29 31 30 32 33 38 36 38 41 39 39 39 41 43 46 48 49 50 54
16 17 17 17 18 16 22 25 25 29 27 24 23 23 23 25 24 26 27 29 33 31 31 30 31 31 31 30 34 36 34 33 35 40 36 37 39 38 43 47 49 51 54
16 16 17 18 18 19 24 26 27 29 28 27 26 25 23 20 25 24 27 28 28 28 29 31 30 30 34 31 35 36 34 34 32 36 36 35 37 37 39 42 49 50 53
16 17 18 19 19 19 25 26 27 28 26 25 25 24 24 24 25 26 27 27 27 27 27 25 28 30 32 34 34 36 37 34 35 36 36 33 36 35 37 37 45 50 51
17 18 18 18 19 19 24 25 26 29 27 26 25 24 24 25 28 29 29 29 27 27 28 30 31 32 33 33 32 34 35 33 33 34 35 34 35 36 35 34 37 48 50
17 17 18 19 21 20 23 25 25 27 28 27 26 25 27 26 28 30 30 30 30 29 28 28 28 30 31 31 31 36 37 33 32 33 35 34 33 34 33 34 34 40 46
Lifted_Index
18 18 18 19 19 20 20 20 20 20 20 20 20 20 20 19 19 19 18 17 17 15 14 12 11 10 9 8 6 3 1 -1 -2 -3 -3 -3 -3 -3 -3 -3 -3 -2 -2
18 18 19 19 20 21 21 21 21 21 21 21 21 20 20 20 19 19 18 18 17 16 15 13 12 10 9 8 7 5 2 -0 -2 -2 -3 -3 -3 -3 -3 -3 -2 -2 -2
18 19 19 20 21 21 21 22 22 22 22 22 21 21 20 20 19 19 18 18 17 16 15 14 12 10 9 7 6 5 3 1 -0 -2 -2 -3 -3 -3 -3 -2 -2 -2 -1
19 19 20 21 22 22 22 22 23 23 23 22 22 21 20 20 19 18 18 17 16 15 14 12 10 8 7 5 4 4 4 2 1 -0 -1 -2 -2 -3 -3 -2 -1 -1 -1
19 20 21 21 22 23 23 23 23 23 23 22 22 21 20 19 19 18 17 15 13 11 9 7 6 4 4 3 2 2 3 3 2 1 -0 -1 -2 -2 -2 -2 -1 -0 -0
19 20 21 22 23 23 23 24 24 23 23 22 21 20 19 19 17 16 14 11 9 7 5 4 3 2 2 1 1 1 1 2 2 1 0 0 0 -1 -1 -1 0 0 0
19 20 21 23 23 24 24 24 24 23 22 21 21 20 18 17 15 13 10 8 7 6 4 4 3 2 2 2 1 1 1 1 1 1 1 1 1 1 1 1 1 0 0
20 21 22 23 24 24 24 24 23 23 22 21 20 19 16 14 12 10 8 7 7 6 6 5 4 4 3 3 2 2 1 1 1 1 1 1 1 2 2 2 1 0 -0
20 21 22 23 24 24 24 24 23 23 22 21 20 18 15 12 10 9 9 8 7 7 7 6 5 5 4 4 3 2 2 1 1 1 0 1 1 1 2 2 1 0 -0
21 22 23 23 24 24 24 23 23 23 22 21 19 17 14 12 11 9 9 9 9 8 8 8 7 6 5 5 4 3 2 1 1 1 0 -0 0 1 2 2 1 1 0
22 22 23 23 24 24 24 23 23 23 22 21 18 16 14 13 12 11 10 10 10 9 9 9 8 6 6 5 4 3 2 2 1 1 -0 -1 -0 1 1 1 1 1 0
22 23 23 24 24 24 24 24 23 23 22 20 17 15 14 13 12 12 11 11 10 10 10 9 8 7 6 5 5 4 3 2 1 0 -1 -1 -1 -0 1 2 1 1 0
22 23 23 24 24 24 24 24 23 23 21 19 17 15 13 12 12 12 12 11 11 10 10 10 9 7 6 6 6 5 4 3 1 -0 -1 -1 -1 -0 1 1 1 0 -0
23 23 24 24 24 24 24 24 23 22 20 18 16 14 13 12 11 11 11 11 11 10 10 10 9 8 8 7 7 6 6 4 2 0 0 -0 -0 -0 0 1 1 0 -0
23 23 23 23 23 24 24 24 23 21 19 17 15 14 13 12 12 12 12 11 11 10 10 10 10 10 10 9 8 7 6 4 2 1 1 1 0 -0 -0 0 1 1 1
23 23 23 23 23 23 24 23 22 20 18 17 16 14 13 13 12 12 12 12 12 11 10 10 11 11 11 11 9 8 7 5 3 2 2 2 1 -0 0 1 1 1 2
22 22 22 22 22 22 23 22 20 19 18 17 16 15 14 13 13 13 13 12 12 12 11 11 11 12 12 11 10 9 7 6 4 3 3 3 2 1 1 1 1 1 1
22 21 21 21 21 21 21 20 19 18 18 17 17 16 15 14 14 14 13 13 12 12 11 11 11 12 12 12 11 9 8 7 5 4 4 4 2 2 2 3 2 1 1
21 21 21 21 21 20 19 18 18 17 17 17 17 16 15 14 14 14 13 13 13 12 12 11 11 11 12 12 11 10 8 7 6 5 4 4 3 2 3 4 3 2 2
20 20 20 20 20 19 18 17 17 17 17 17 16 15 15 14 14 14 13 13 13 12 11 11 11 11 11 11 11 9 7 7 6 6 5 5 4 3 3 4 4 3 3
20 20 20 20 19 17 16 16 16 16 15 15 15 15 14 14 14 13 13 13 12 12 11 11 11 11 11 11 11 9 7 6 6 7 6 6 5 3 3 4 4 3 3
19 19 19 19 18 16 15 15 15 14 14 14 14 14 14 14 14 13 13 13 12 12 11 11 11 11 12 12 11 9 7 6 6 7 7 6 5 4 4 4 4 4 3
19 19 19 18 16 15 14 14 13 13 13 13 13 14 14 14 14 14 13 13 12 12 12 11 11 12 12 12 11 10 8 7 6 7 7 6 5 4 4 4 4 4 3
18 18 18 17 15 14 14 13 13 12 12 12 12 13 13 13 13 13 13 13 12 12 12 12 12 12 12 12 12 10 9 7 7 7 6 6 5 5 5 5 5 4 3
18 18 17 16 14 14 14 13 12 12 11 11 11 12 12 12 13 13 12 12 12 12 12 12 12 12 13 13 12 11 9 7 6 6 6 5 5 5 5 6 5 4 4
18 18 17 15 14 13 14 13 12 12 11 11 11 11 11 12 12 12 12 12 11 11 12 11 12 12 13 13 13 11 9 7 6 6 6 5 5 5 5 6 6 5 4